TimeCST,TemperatureF,Dew PointF,Humidity,Sea Level PressureIn,VisibilityMPH,Wind Direction,Wind SpeedMPH,Gust SpeedMPH,PrecipitationIn,Events,Conditions,WindDirDegrees,DateUTC
12:53 AM,36.0,34.0,93,30.21,8.0,Calm,Calm,-,N/A,,Clear,0,2012-11-09 06:53:00
1:53 AM,36.0,34.0,93,30.22,8.0,Calm,Calm,-,N/A,,Clear,0,2012-11-09 07:53:00
2:53 AM,35.1,32.0,89,30.21,7.0,Calm,Calm,-,N/A,,Clear,0,2012-11-09 08:53:00
3:41 AM,33.8,32.0,93,30.22,3.0,Calm,Calm,-,N/A,,Partly Cloudy,0,2012-11-09 09:41:00
3:53 AM,34.0,32.0,92,30.22,7.0,Calm,Calm,-,N/A,,Partly Cloudy,0,2012-11-09 09:53:00
4:53 AM,34.0,32.0,92,30.24,7.0,Calm,Calm,-,N/A,,Clear,0,2012-11-09 10:53:00
5:53 AM,33.1,30.9,92,30.25,8.0,Calm,Calm,-,N/A,,Clear,0,2012-11-09 11:53:00
6:53 AM,35.1,33.1,92,30.28,6.0,Calm,Calm,-,N/A,,Clear,0,2012-11-09 12:53:00
7:53 AM,46.0,42.1,86,30.30,10.0,NNE,3.5,-,N/A,,Clear,30,2012-11-09 13:53:00
8:53 AM,55.9,44.1,64,30.31,10.0,Calm,Calm,-,N/A,,Clear,0,2012-11-09 14:53:00
9:53 AM,62.1,43.0,50,30.31,10.0,Calm,Calm,-,N/A,,Clear,0,2012-11-09 15:53:00
10:53 AM,64.9,39.9,40,30.29,10.0,SW,4.6,-,N/A,,Clear,230,2012-11-09 16:53:00
11:53 AM,68.0,37.0,32,30.26,10.0,Variable,4.6,-,N/A,,Clear,0,2012-11-09 17:53:00
12:53 PM,70.0,37.9,31,30.23,10.0,Calm,Calm,-,N/A,,Clear,0,2012-11-09 18:53:00
1:53 PM,71.1,37.0,29,30.20,10.0,Calm,Calm,-,N/A,,Clear,0,2012-11-09 19:53:00
2:53 PM,66.9,36.0,32,30.20,10.0,Calm,Calm,-,N/A,,Clear,0,2012-11-09 20:53:00
3:53 PM,70.0,35.1,28,30.20,10.0,Calm,Calm,-,N/A,,Unknown,0,2012-11-09 21:53:00
4:53 PM,59.0,42.1,53,30.21,10.0,Calm,Calm,-,N/A,,Clear,0,2012-11-09 22:53:00
5:53 PM,53.1,44.1,71,30.22,10.0,Calm,Calm,-,N/A,,Clear,0,2012-11-09 23:53:00
6:53 PM,48.9,45.0,86,30.23,10.0,Calm,Calm,-,N/A,,Clear,0,2012-11-10 00:53:00
7:53 PM,46.0,43.0,89,30.24,10.0,Calm,Calm,-,N/A,,Clear,0,2012-11-10 01:53:00
8:53 PM,45.0,42.1,90,30.25,10.0,Calm,Calm,-,N/A,,Clear,0,2012-11-10 02:53:00
9:53 PM,43.0,41.0,93,30.26,8.0,Calm,Calm,-,N/A,,Clear,0,2012-11-10 03:53:00
10:53 PM,42.1,39.9,92,30.26,8.0,Calm,Calm,-,N/A,,Clear,0,2012-11-10 04:53:00
11:53 PM,41.0,39.0,93,30.25,7.0,Calm,Calm,-,N/A,,Clear,0,2012-11-10 05:53:00